owner,sensor,date,latitude,longitude,vertical_datum,wind_speed,wind_to_direction,wind_speed_of_gust,qcFlag 
TCOON,ioos:station:TCOON:003:1,2008-01-01T00:00:00Z,26.8015,-97.4706,0.0,3.8,106.0,4.4,'11111222,11111222,11111222' 
TCOON,ioos:station:TCOON:003:1,2008-01-01T02:00:00Z,26.8015,-97.4706,0.0,3.6,64.0,4.1,'11111222,11111222,11111222' 
TCOON,ioos:station:TCOON:003:1,2008-01-01T03:00:00Z,26.8015,-97.4706,0.0,3.3,61.0,3.6,'11111222,11111222,11111222' 
TCOON,ioos:station:TCOON:003:1,2008-01-01T04:00:00Z,26.8015,-97.4706,0.0,2.7,47.0,2.9,'11111222,11111222,11111222' 
TCOON,ioos:station:TCOON:003:1,2008-01-01T05:00:00Z,26.8015,-97.4706,0.0,11.8,30.0,14.9,'11111222,11111222,11111222' 
TCOON,ioos:station:TCOON:003:1,2008-01-01T06:00:00Z,26.8015,-97.4706,0.0,12.3,28.0,14.4,'11111222,11111222,11111222' 
TCOON,ioos:station:TCOON:003:1,2008-01-01T07:00:00Z,26.8015,-97.4706,0.0,14.3,31.0,17.3,'11111222,11111222,11111222' 
TCOON,ioos:station:TCOON:003:1,2008-01-01T08:00:00Z,26.8015,-97.4706,0.0,12.8,25.0,16.0,'11111222,11111222,11111222' 
TCOON,ioos:station:TCOON:003:1,2008-01-01T09:00:00Z,26.8015,-97.4706,0.0,11.6,25.0,15.0,'11111222,11111222,11111222' 
TCOON,ioos:station:TCOON:003:1,2008-01-01T10:00:00Z,26.8015,-97.4706,0.0,15.8,36.0,18.6,'11111222,11111222,11111222' 
TCOON,ioos:station:TCOON:003:1,2008-01-01T11:00:00Z,26.8015,-97.4706,0.0,13.8,33.0,17.3,'11111222,11111222,11111222' 
TCOON,ioos:station:TCOON:003:1,2008-01-01T12:00:00Z,26.8015,-97.4706,0.0,12.0,33.0,14.3,'11111222,11111222,11111222' 
TCOON,ioos:station:TCOON:003:1,2008-01-01T13:00:00Z,26.8015,-97.4706,0.0,11.0,23.0,15.0,'11111222,11111222,11111222' 
TCOON,ioos:station:TCOON:003:1,2008-01-01T14:00:00Z,26.8015,-97.4706,0.0,14.6,16.0,17.8,'11111222,11111222,11111222' 
TCOON,ioos:station:TCOON:003:1,2008-01-01T15:00:00Z,26.8015,-97.4706,0.0,13.6,6.0,15.9,'11111222,11111222,11111222' 
TCOON,ioos:station:TCOON:003:1,2008-01-01T16:00:00Z,26.8015,-97.4706,0.0,12.7,11.0,15.5,'11111222,11111222,11111222' 
TCOON,ioos:station:TCOON:003:1,2008-01-01T17:00:00Z,26.8015,-97.4706,0.0,11.8,23.0,13.9,'11111222,11111222,11111222' 
TCOON,ioos:station:TCOON:003:1,2008-01-01T18:00:00Z,26.8015,-97.4706,0.0,13.0,13.0,15.1,'11111222,11111222,11111222' 
TCOON,ioos:station:TCOON:003:1,2008-01-01T19:00:00Z,26.8015,-97.4706,0.0,11.7,19.0,13.3,'11111222,11111222,11111222' 
TCOON,ioos:station:TCOON:003:1,2008-01-01T20:00:00Z,26.8015,-97.4706,0.0,9.4,26.0,10.8,'11111222,11111222,11111222' 
TCOON,ioos:station:TCOON:003:1,2008-01-01T21:00:00Z,26.8015,-97.4706,0.0,8.5,35.0,10.4,'11111222,11111222,11111222' 
TCOON,ioos:station:TCOON:003:1,2008-01-01T22:00:00Z,26.8015,-97.4706,0.0,8.6,36.0,10.6,'11111222,11111222,11111222' 
TCOON,ioos:station:TCOON:003:1,2008-01-01T23:00:00Z,26.8015,-97.4706,0.0,6.3,32.0,7.5,'11111222,11111222,11111222' 
TCOON,ioos:station:TCOON:003:1,2008-01-02T00:00:00Z,26.8015,-97.4706,0.0,4.7,27.0,5.5,'11111222,11111222,11111222' 
TCOON,ioos:station:TCOON:003:1,2008-01-02T01:00:00Z,26.8015,-97.4706,0.0,6.2,18.0,7.2,'11111222,11111222,11111222' 
TCOON,ioos:station:TCOON:003:1,2008-01-02T02:00:00Z,26.8015,-97.4706,0.0,6.8,22.0,7.9,'11111222,11111222,11111222' 
TCOON,ioos:station:TCOON:003:1,2008-01-02T03:00:00Z,26.8015,-97.4706,0.0,6.1,20.0,7.2,'11111222,11111222,11111222' 
TCOON,ioos:station:TCOON:003:1,2008-01-02T04:00:00Z,26.8015,-97.4706,0.0,8.3,29.0,10.5,'11111222,11111222,11111222' 
TCOON,ioos:station:TCOON:003:1,2008-01-02T05:00:00Z,26.8015,-97.4706,0.0,8.4,22.0,9.7,'11111222,11111222,11111222' 
TCOON,ioos:station:TCOON:003:1,2008-01-02T06:00:00Z,26.8015,-97.4706,0.0,7.0,19.0,7.9,'11111222,11111222,11111222' 
TCOON,ioos:station:TCOON:003:1,2008-01-02T07:00:00Z,26.8015,-97.4706,0.0,7.1,18.0,8.5,'11111222,11111222,11111222' 
TCOON,ioos:station:TCOON:003:1,2008-01-02T08:00:00Z,26.8015,-97.4706,0.0,7.8,18.0,9.5,'11111222,11111222,11111222' 
TCOON,ioos:station:TCOON:003:1,2008-01-02T09:00:00Z,26.8015,-97.4706,0.0,7.2,11.0,8.0,'11111222,11111222,11111222' 
TCOON,ioos:station:TCOON:003:1,2008-01-02T10:00:00Z,26.8015,-97.4706,0.0,8.6,8.0,9.9,'11111222,11111222,11111222' 
TCOON,ioos:station:TCOON:003:1,2008-01-02T11:00:00Z,26.8015,-97.4706,0.0,6.3,1.0,7.4,'11111222,11111222,11111222' 
TCOON,ioos:station:TCOON:003:1,2008-01-02T12:00:00Z,26.8015,-97.4706,0.0,6.8,354.0,7.7,'11111222,11111222,11111222' 
TCOON,ioos:station:TCOON:003:1,2008-01-02T13:00:00Z,26.8015,-97.4706,0.0,6.0,354.0,6.9,'11111222,11111222,11111222' 
TCOON,ioos:station:TCOON:003:1,2008-01-02T14:00:00Z,26.8015,-97.4706,0.0,6.7,2.0,7.6,'11111222,11111222,11111222' 
TCOON,ioos:station:TCOON:003:1,2008-01-02T15:00:00Z,26.8015,-97.4706,0.0,9.6,26.0,12.0,'11111222,11111222,11111222' 
TCOON,ioos:station:TCOON:003:1,2008-01-02T16:00:00Z,26.8015,-97.4706,0.0,9.4,20.0,11.9,'11111222,11111222,11111222' 
TCOON,ioos:station:TCOON:003:1,2008-01-02T17:00:00Z,26.8015,-97.4706,0.0,8.2,48.0,10.9,'11111222,11111222,11111222' 
TCOON,ioos:station:TCOON:003:1,2008-01-02T18:00:00Z,26.8015,-97.4706,0.0,7.8,37.0,9.7,'11111222,11111222,11111222' 
TCOON,ioos:station:TCOON:003:1,2008-01-02T19:00:00Z,26.8015,-97.4706,0.0,8.2,29.0,12.2,'11111222,11111222,11111222' 
TCOON,ioos:station:TCOON:003:1,2008-01-02T20:00:00Z,26.8015,-97.4706,0.0,7.8,43.0,9.7,'11111222,11111222,11111222' 
TCOON,ioos:station:TCOON:003:1,2008-01-02T21:00:00Z,26.8015,-97.4706,0.0,7.3,41.0,8.5,'11111222,11111222,11111222' 
TCOON,ioos:station:TCOON:003:1,2008-01-02T22:00:00Z,26.8015,-97.4706,0.0,6.1,47.0,7.0,'11111222,11111222,11111222' 
TCOON,ioos:station:TCOON:003:1,2008-01-02T23:00:00Z,26.8015,-97.4706,0.0,5.7,40.0,6.6,'11111222,11111222,11111222' 
TCOON,ioos:station:TCOON:003:1,2008-01-03T00:00:00Z,26.8015,-97.4706,0.0,3.8,21.0,4.4,'11111222,11111222,11111222' 
TCOON,ioos:station:TCOON:003:1,2008-01-03T01:00:00Z,26.8015,-97.4706,0.0,3.0,4.0,3.4,'11111222,11111222,11111222' 
TCOON,ioos:station:TCOON:003:1,2008-01-03T02:00:00Z,26.8015,-97.4706,0.0,2.7,13.0,3.2,'11111222,11111222,11111222' 
TCOON,ioos:station:TCOON:003:1,2008-01-03T03:00:00Z,26.8015,-97.4706,0.0,3.2,346.0,4.0,'11111222,11111222,11111222' 
TCOON,ioos:station:TCOON:003:1,2008-01-03T04:00:00Z,26.8015,-97.4706,0.0,2.8,334.0,3.3,'11111222,11111222,11111222' 
TCOON,ioos:station:TCOON:003:1,2008-01-03T05:00:00Z,26.8015,-97.4706,0.0,4.1,356.0,4.7,'11111222,11111222,11111222' 
TCOON,ioos:station:TCOON:003:1,2008-01-03T06:00:00Z,26.8015,-97.4706,0.0,5.3,6.0,6.1,'11111222,11111222,11111222' 
TCOON,ioos:station:TCOON:003:1,2008-01-03T07:00:00Z,26.8015,-97.4706,0.0,4.9,2.0,5.4,'11111222,11111222,11111222' 
TCOON,ioos:station:TCOON:003:1,2008-01-03T08:00:00Z,26.8015,-97.4706,0.0,6.3,4.0,7.4,'11111222,11111222,11111222' 
TCOON,ioos:station:TCOON:003:1,2008-01-03T09:00:00Z,26.8015,-97.4706,0.0,6.7,8.0,7.9,'11111222,11111222,11111222' 
TCOON,ioos:station:TCOON:003:1,2008-01-03T10:00:00Z,26.8015,-97.4706,0.0,7.5,11.0,9.0,'11111222,11111222,11111222' 
TCOON,ioos:station:TCOON:003:1,2008-01-03T11:00:00Z,26.8015,-97.4706,0.0,6.3,8.0,7.7,'11111222,11111222,11111222' 
TCOON,ioos:station:TCOON:003:1,2008-01-03T12:00:00Z,26.8015,-97.4706,0.0,6.8,5.0,8.2,'11111222,11111222,11111222' 
TCOON,ioos:station:TCOON:003:1,2008-01-03T13:00:00Z,26.8015,-97.4706,0.0,6.7,1.0,7.7,'11111222,11111222,11111222' 
TCOON,ioos:station:TCOON:003:1,2008-01-03T14:00:00Z,26.8015,-97.4706,0.0,8.0,2.0,9.2,'11111222,11111222,11111222' 
TCOON,ioos:station:TCOON:003:1,2008-01-03T15:00:00Z,26.8015,-97.4706,0.0,7.9,15.0,9.2,'11111222,11111222,11111222' 
TCOON,ioos:station:TCOON:003:1,2008-01-03T16:00:00Z,26.8015,-97.4706,0.0,7.3,31.0,8.0,'11111222,11111222,11111222' 
TCOON,ioos:station:TCOON:003:1,2008-01-03T17:00:00Z,26.8015,-97.4706,0.0,4.6,106.0,5.3,'11111222,11111222,11111222' 
TCOON,ioos:station:TCOON:003:1,2008-01-03T18:00:00Z,26.8015,-97.4706,0.0,5.1,86.0,6.9,'11111222,11111222,11111222' 
TCOON,ioos:station:TCOON:003:1,2008-01-03T19:00:00Z,26.8015,-97.4706,0.0,5.6,110.0,8.6,'11111222,11111222,11111222' 
TCOON,ioos:station:TCOON:003:1,2008-01-03T20:00:00Z,26.8015,-97.4706,0.0,5.3,107.0,6.4,'11111222,11111222,11111222' 
TCOON,ioos:station:TCOON:003:1,2008-01-03T21:00:00Z,26.8015,-97.4706,0.0,6.1,144.0,7.1,'11111222,11111222,11111222' 
TCOON,ioos:station:TCOON:003:1,2008-01-03T23:00:00Z,26.8015,-97.4706,0.0,4.6,144.0,5.1,'11111222,11111222,11111222' 
TCOON,ioos:station:TCOON:003:1,2008-01-04T00:00:00Z,26.8015,-97.4706,0.0,4.3,130.0,5.2,'11111222,11111222,11111222' 
TCOON,ioos:station:TCOON:003:1,2008-01-04T01:00:00Z,26.8015,-97.4706,0.0,3.6,116.0,4.6,'11111222,11111222,11111222' 
TCOON,ioos:station:TCOON:003:1,2008-01-04T02:00:00Z,26.8015,-97.4706,0.0,3.8,143.0,4.5,'11111222,11111222,11111222' 
TCOON,ioos:station:TCOON:003:1,2008-01-04T03:00:00Z,26.8015,-97.4706,0.0,3.0,155.0,3.3,'11111222,11111222,11111222' 
TCOON,ioos:station:TCOON:003:1,2008-01-04T04:00:00Z,26.8015,-97.4706,0.0,2.7,151.0,2.9,'11111222,11111222,11111222' 
TCOON,ioos:station:TCOON:003:1,2008-01-04T05:00:00Z,26.8015,-97.4706,0.0,0.5,192.0,0.8,'11111222,11111222,11111222' 
TCOON,ioos:station:TCOON:003:1,2008-01-04T06:00:00Z,26.8015,-97.4706,0.0,2.1,152.0,2.5,'11111222,11111222,11111222' 
TCOON,ioos:station:TCOON:003:1,2008-01-04T07:00:00Z,26.8015,-97.4706,0.0,1.0,164.0,1.2,'11111222,11111222,11111222' 
TCOON,ioos:station:TCOON:003:1,2008-01-04T08:00:00Z,26.8015,-97.4706,0.0,0.6,310.0,0.7,'11111222,11111222,11111222' 
TCOON,ioos:station:TCOON:003:1,2008-01-04T09:00:00Z,26.8015,-97.4706,0.0,1.2,345.0,1.3,'11111222,11111222,11111222' 
TCOON,ioos:station:TCOON:003:1,2008-01-04T10:00:00Z,26.8015,-97.4706,0.0,1.6,77.0,1.7,'11111222,11111222,11111222' 
TCOON,ioos:station:TCOON:003:1,2008-01-04T11:00:00Z,26.8015,-97.4706,0.0,3.6,114.0,4.1,'11111222,11111222,11111222' 
TCOON,ioos:station:TCOON:003:1,2008-01-04T12:00:00Z,26.8015,-97.4706,0.0,3.6,137.0,3.9,'11111222,11111222,11111222' 
TCOON,ioos:station:TCOON:003:1,2008-01-04T13:00:00Z,26.8015,-97.4706,0.0,3.4,139.0,3.6,'11111222,11111222,11111222' 
TCOON,ioos:station:TCOON:003:1,2008-01-04T14:00:00Z,26.8015,-97.4706,0.0,2.9,184.0,3.0,'11111222,11111222,11111222' 
TCOON,ioos:station:TCOON:003:1,2008-01-04T15:00:00Z,26.8015,-97.4706,0.0,3.8,151.0,4.5,'11111222,11111222,11111222' 
TCOON,ioos:station:TCOON:003:1,2008-01-04T16:00:00Z,26.8015,-97.4706,0.0,3.3,190.0,3.5,'11111222,11111222,11111222' 
TCOON,ioos:station:TCOON:003:1,2008-01-04T17:00:00Z,26.8015,-97.4706,0.0,5.9,172.0,6.4,'11111222,11111222,11111222' 
TCOON,ioos:station:TCOON:003:1,2008-01-04T18:00:00Z,26.8015,-97.4706,0.0,5.6,169.0,6.5,'11111222,11111222,11111222' 
TCOON,ioos:station:TCOON:003:1,2008-01-04T19:00:00Z,26.8015,-97.4706,0.0,7.3,147.0,8.6,'11111222,11111222,11111222' 
TCOON,ioos:station:TCOON:003:1,2008-01-04T20:00:00Z,26.8015,-97.4706,0.0,8.9,157.0,10.2,'11111222,11111222,11111222' 
TCOON,ioos:station:TCOON:003:1,2008-01-04T21:00:00Z,26.8015,-97.4706,0.0,8.4,170.0,9.6,'11111222,11111222,11111222' 
TCOON,ioos:station:TCOON:003:1,2008-01-04T22:00:00Z,26.8015,-97.4706,0.0,5.2,172.0,6.2,'11111222,11111222,11111222' 
TCOON,ioos:station:TCOON:003:1,2008-01-04T23:00:00Z,26.8015,-97.4706,0.0,5.6,148.0,6.7,'11111222,11111222,11111222' 
TCOON,ioos:station:TCOON:003:1,2008-01-05T00:00:00Z,26.8015,-97.4706,0.0,5.6,149.0,7.6,'11111222,11111222,11111222' 
TCOON,ioos:station:TCOON:003:1,2008-01-05T01:00:00Z,26.8015,-97.4706,0.0,6.0,153.0,7.1,'11111222,11111222,11111222' 
TCOON,ioos:station:TCOON:003:1,2008-01-05T02:00:00Z,26.8015,-97.4706,0.0,5.9,154.0,7.0,'11111222,11111222,11111222' 
TCOON,ioos:station:TCOON:003:1,2008-01-05T03:00:00Z,26.8015,-97.4706,0.0,5.0,158.0,5.8,'11111222,11111222,11111222' 
TCOON,ioos:station:TCOON:003:1,2008-01-05T04:00:00Z,26.8015,-97.4706,0.0,3.5,175.0,3.9,'11111222,11111222,11111222' 
TCOON,ioos:station:TCOON:003:1,2008-01-05T05:00:00Z,26.8015,-97.4706,0.0,3.8,181.0,4.3,'11111222,11111222,11111222' 
TCOON,ioos:station:TCOON:003:1,2008-01-05T06:00:00Z,26.8015,-97.4706,0.0,4.4,184.0,4.8,'11111222,11111222,11111222' 
TCOON,ioos:station:TCOON:003:1,2008-01-05T07:00:00Z,26.8015,-97.4706,0.0,4.4,177.0,4.9,'11111222,11111222,11111222' 
TCOON,ioos:station:TCOON:003:1,2008-01-05T08:00:00Z,26.8015,-97.4706,0.0,4.8,169.0,5.5,'11111222,11111222,11111222' 
TCOON,ioos:station:TCOON:003:1,2008-01-05T09:00:00Z,26.8015,-97.4706,0.0,1.4,184.0,1.7,'11111222,11111222,11111222' 
TCOON,ioos:station:TCOON:003:1,2008-01-05T10:00:00Z,26.8015,-97.4706,0.0,4.5,159.0,4.9,'11111222,11111222,11111222' 
TCOON,ioos:station:TCOON:003:1,2008-01-05T11:00:00Z,26.8015,-97.4706,0.0,2.7,200.0,2.9,'11111222,11111222,11111222' 
TCOON,ioos:station:TCOON:003:1,2008-01-05T12:00:00Z,26.8015,-97.4706,0.0,4.9,166.0,5.5,'11111222,11111222,11111222' 
TCOON,ioos:station:TCOON:003:1,2008-01-05T13:00:00Z,26.8015,-97.4706,0.0,3.2,168.0,3.4,'11111222,11111222,11111222' 
TCOON,ioos:station:TCOON:003:1,2008-01-05T14:00:00Z,26.8015,-97.4706,0.0,5.1,172.0,5.6,'11111222,11111222,11111222' 
TCOON,ioos:station:TCOON:003:1,2008-01-05T15:00:00Z,26.8015,-97.4706,0.0,4.6,171.0,5.3,'11111222,11111222,11111222' 
TCOON,ioos:station:TCOON:003:1,2008-01-05T16:00:00Z,26.8015,-97.4706,0.0,6.6,166.0,7.3,'11111222,11111222,11111222' 
TCOON,ioos:station:TCOON:003:1,2008-01-05T17:00:00Z,26.8015,-97.4706,0.0,5.7,166.0,6.6,'11111222,11111222,11111222' 
TCOON,ioos:station:TCOON:003:1,2008-01-05T18:00:00Z,26.8015,-97.4706,0.0,8.5,164.0,10.1,'11111222,11111222,11111222' 
TCOON,ioos:station:TCOON:003:1,2008-01-05T19:00:00Z,26.8015,-97.4706,0.0,7.3,161.0,8.5,'11111222,11111222,11111222' 
TCOON,ioos:station:TCOON:003:1,2008-01-05T20:00:00Z,26.8015,-97.4706,0.0,8.5,160.0,10.9,'11111222,11111222,11111222' 
TCOON,ioos:station:TCOON:003:1,2008-01-05T21:00:00Z,26.8015,-97.4706,0.0,9.2,163.0,10.2,'11111222,11111222,11111222' 
TCOON,ioos:station:TCOON:003:1,2008-01-05T22:00:00Z,26.8015,-97.4706,0.0,8.8,166.0,9.8,'11111222,11111222,11111222' 
TCOON,ioos:station:TCOON:003:1,2008-01-05T23:00:00Z,26.8015,-97.4706,0.0,8.6,166.0,9.6,'11111222,11111222,11111222' 
TCOON,ioos:station:TCOON:003:1,2008-01-06T00:00:00Z,26.8015,-97.4706,0.0,7.6,164.0,9.0,'11111222,11111222,11111222' 
TCOON,ioos:station:TCOON:003:1,2008-01-06T01:00:00Z,26.8015,-97.4706,0.0,7.4,170.0,8.4,'11111222,11111222,11111222' 
TCOON,ioos:station:TCOON:003:1,2008-01-06T02:00:00Z,26.8015,-97.4706,0.0,5.7,167.0,6.6,'11111222,11111222,11111222' 
TCOON,ioos:station:TCOON:003:1,2008-01-06T03:00:00Z,26.8015,-97.4706,0.0,6.0,165.0,7.0,'11111222,11111222,11111222' 
TCOON,ioos:station:TCOON:003:1,2008-01-06T04:00:00Z,26.8015,-97.4706,0.0,4.8,178.0,5.3,'11111222,11111222,11111222' 
TCOON,ioos:station:TCOON:003:1,2008-01-06T05:00:00Z,26.8015,-97.4706,0.0,4.9,171.0,5.7,'11111222,11111222,11111222' 
TCOON,ioos:station:TCOON:003:1,2008-01-06T06:00:00Z,26.8015,-97.4706,0.0,4.9,181.0,5.5,'11111222,11111222,11111222' 
TCOON,ioos:station:TCOON:003:1,2008-01-06T07:00:00Z,26.8015,-97.4706,0.0,5.9,178.0,6.7,'11111222,11111222,11111222' 
TCOON,ioos:station:TCOON:003:1,2008-01-06T08:00:00Z,26.8015,-97.4706,0.0,4.2,179.0,5.0,'11111222,11111222,11111222' 
TCOON,ioos:station:TCOON:003:1,2008-01-06T09:00:00Z,26.8015,-97.4706,0.0,5.3,182.0,6.0,'11111222,11111222,11111222' 
TCOON,ioos:station:TCOON:003:1,2008-01-06T10:00:00Z,26.8015,-97.4706,0.0,3.0,176.0,3.4,'11111222,11111222,11111222' 
TCOON,ioos:station:TCOON:003:1,2008-01-06T11:00:00Z,26.8015,-97.4706,0.0,4.4,168.0,5.1,'11111222,11111222,11111222' 
TCOON,ioos:station:TCOON:003:1,2008-01-06T12:00:00Z,26.8015,-97.4706,0.0,3.4,158.0,4.3,'11111222,11111222,11111222' 
TCOON,ioos:station:TCOON:003:1,2008-01-06T13:00:00Z,26.8015,-97.4706,0.0,4.4,170.0,5.0,'11111222,11111222,11111222' 
TCOON,ioos:station:TCOON:003:1,2008-01-06T14:00:00Z,26.8015,-97.4706,0.0,5.6,172.0,6.1,'11111222,11111222,11111222' 
TCOON,ioos:station:TCOON:003:1,2008-01-06T15:00:00Z,26.8015,-97.4706,0.0,6.4,177.0,7.1,'11111222,11111222,11111222' 
TCOON,ioos:station:TCOON:003:1,2008-01-06T16:00:00Z,26.8015,-97.4706,0.0,7.6,165.0,9.5,'11111222,11111222,11111222' 
TCOON,ioos:station:TCOON:003:1,2008-01-06T17:00:00Z,26.8015,-97.4706,0.0,8.9,166.0,10.4,'11111222,11111222,11111222' 
TCOON,ioos:station:TCOON:003:1,2008-01-06T18:00:00Z,26.8015,-97.4706,0.0,9.4,166.0,10.9,'11111222,11111222,11111222' 
TCOON,ioos:station:TCOON:003:1,2008-01-06T19:00:00Z,26.8015,-97.4706,0.0,9.8,166.0,11.3,'11111222,11111222,11111222' 
TCOON,ioos:station:TCOON:003:1,2008-01-06T20:00:00Z,26.8015,-97.4706,0.0,10.6,165.0,12.3,'11111222,11111222,11111222' 
TCOON,ioos:station:TCOON:003:1,2008-01-06T21:00:00Z,26.8015,-97.4706,0.0,11.0,168.0,12.5,'11111222,11111222,11111222' 
TCOON,ioos:station:TCOON:003:1,2008-01-06T22:00:00Z,26.8015,-97.4706,0.0,10.1,165.0,11.6,'11111222,11111222,11111222' 
TCOON,ioos:station:TCOON:003:1,2008-01-06T23:00:00Z,26.8015,-97.4706,0.0,8.7,165.0,10.2,'11111222,11111222,11111222' 
TCOON,ioos:station:TCOON:003:1,2008-01-07T00:00:00Z,26.8015,-97.4706,0.0,7.3,151.0,8.6,'11111222,11111222,11111222' 
TCOON,ioos:station:TCOON:003:1,2008-01-07T01:00:00Z,26.8015,-97.4706,0.0,7.5,154.0,8.7,'11111222,11111222,11111222' 
TCOON,ioos:station:TCOON:003:1,2008-01-07T02:00:00Z,26.8015,-97.4706,0.0,5.9,170.0,6.6,'11111222,11111222,11111222' 
TCOON,ioos:station:TCOON:003:1,2008-01-07T03:00:00Z,26.8015,-97.4706,0.0,7.4,156.0,8.4,'11111222,11111222,11111222' 
TCOON,ioos:station:TCOON:003:1,2008-01-07T04:00:00Z,26.8015,-97.4706,0.0,6.4,163.0,7.6,'11111222,11111222,11111222' 
TCOON,ioos:station:TCOON:003:1,2008-01-07T05:00:00Z,26.8015,-97.4706,0.0,6.2,164.0,7.2,'11111222,11111222,11111222' 
TCOON,ioos:station:TCOON:003:1,2008-01-07T06:00:00Z,26.8015,-97.4706,0.0,7.6,164.0,8.5,'11111222,11111222,11111222' 
TCOON,ioos:station:TCOON:003:1,2008-01-07T07:00:00Z,26.8015,-97.4706,0.0,6.9,168.0,7.9,'11111222,11111222,11111222' 
TCOON,ioos:station:TCOON:003:1,2008-01-07T08:00:00Z,26.8015,-97.4706,0.0,6.8,173.0,7.8,'11111222,11111222,11111222' 
TCOON,ioos:station:TCOON:003:1,2008-01-07T09:00:00Z,26.8015,-97.4706,0.0,6.2,174.0,7.3,'11111222,11111222,11111222' 
TCOON,ioos:station:TCOON:003:1,2008-01-07T10:00:00Z,26.8015,-97.4706,0.0,6.0,171.0,6.7,'11111222,11111222,11111222' 
TCOON,ioos:station:TCOON:003:1,2008-01-07T11:00:00Z,26.8015,-97.4706,0.0,5.9,162.0,6.5,'11111222,11111222,11111222' 
TCOON,ioos:station:TCOON:003:1,2008-01-07T12:00:00Z,26.8015,-97.4706,0.0,6.7,161.0,7.5,'11111222,11111222,11111222' 
TCOON,ioos:station:TCOON:003:1,2008-01-07T13:00:00Z,26.8015,-97.4706,0.0,4.1,152.0,4.8,'11111222,11111222,11111222' 
TCOON,ioos:station:TCOON:003:1,2008-01-07T14:00:00Z,26.8015,-97.4706,0.0,4.1,161.0,4.7,'11111222,11111222,11111222' 
TCOON,ioos:station:TCOON:003:1,2008-01-07T15:00:00Z,26.8015,-97.4706,0.0,6.8,163.0,7.8,'11111222,11111222,11111222' 
TCOON,ioos:station:TCOON:003:1,2008-01-07T16:00:00Z,26.8015,-97.4706,0.0,8.9,163.0,10.4,'11111222,11111222,11111222' 
TCOON,ioos:station:TCOON:003:1,2008-01-07T17:00:00Z,26.8015,-97.4706,0.0,11.1,164.0,12.5,'11111222,11111222,11111222' 
TCOON,ioos:station:TCOON:003:1,2008-01-07T18:00:00Z,26.8015,-97.4706,0.0,11.0,166.0,12.7,'11111222,11111222,11111222' 
TCOON,ioos:station:TCOON:003:1,2008-01-07T19:00:00Z,26.8015,-97.4706,0.0,11.4,167.0,13.3,'11111222,11111222,11111222' 
TCOON,ioos:station:TCOON:003:1,2008-01-07T20:00:00Z,26.8015,-97.4706,0.0,12.4,166.0,14.3,'11111222,11111222,11111222' 
TCOON,ioos:station:TCOON:003:1,2008-01-07T21:00:00Z,26.8015,-97.4706,0.0,10.8,165.0,12.8,'11111222,11111222,11111222' 
TCOON,ioos:station:TCOON:003:1,2008-01-07T22:00:00Z,26.8015,-97.4706,0.0,11.4,169.0,13.8,'11111222,11111222,11111222' 
TCOON,ioos:station:TCOON:003:1,2008-01-07T23:00:00Z,26.8015,-97.4706,0.0,9.8,165.0,12.3,'11111222,11111222,11111222' 
TCOON,ioos:station:TCOON:003:1,2008-01-08T00:00:00Z,26.8015,-97.4706,0.0,8.1,160.0,10.0,'11111222,11111222,11111222' 
TCOON,ioos:station:TCOON:003:1,2008-01-08T01:00:00Z,26.8015,-97.4706,0.0,7.9,181.0,9.1,'11111222,11111222,11111222' 
TCOON,ioos:station:TCOON:003:1,2008-01-08T02:00:00Z,26.8015,-97.4706,0.0,6.2,175.0,7.3,'11111222,11111222,11111222' 
TCOON,ioos:station:TCOON:003:1,2008-01-08T03:00:00Z,26.8015,-97.4706,0.0,6.1,177.0,7.2,'11111222,11111222,11111222' 
TCOON,ioos:station:TCOON:003:1,2008-01-08T04:00:00Z,26.8015,-97.4706,0.0,6.8,177.0,7.9,'11111222,11111222,11111222' 
TCOON,ioos:station:TCOON:003:1,2008-01-08T05:00:00Z,26.8015,-97.4706,0.0,9.0,173.0,9.8,'11111222,11111222,11111222' 
TCOON,ioos:station:TCOON:003:1,2008-01-08T06:00:00Z,26.8015,-97.4706,0.0,8.7,172.0,9.9,'11111222,11111222,11111222' 
TCOON,ioos:station:TCOON:003:1,2008-01-08T07:00:00Z,26.8015,-97.4706,0.0,8.6,168.0,10.0,'11111222,11111222,11111222' 
TCOON,ioos:station:TCOON:003:1,2008-01-08T08:00:00Z,26.8015,-97.4706,0.0,8.1,171.0,9.0,'11111222,11111222,11111222' 
TCOON,ioos:station:TCOON:003:1,2008-01-08T09:00:00Z,26.8015,-97.4706,0.0,7.8,169.0,8.7,'11111222,11111222,11111222' 
TCOON,ioos:station:TCOON:003:1,2008-01-08T10:00:00Z,26.8015,-97.4706,0.0,8.8,165.0,9.9,'11111222,11111222,11111222' 
TCOON,ioos:station:TCOON:003:1,2008-01-08T11:00:00Z,26.8015,-97.4706,0.0,9.0,166.0,10.2,'11111222,11111222,11111222' 
TCOON,ioos:station:TCOON:003:1,2008-01-08T12:00:00Z,26.8015,-97.4706,0.0,7.9,167.0,9.2,'11111222,11111222,11111222' 
TCOON,ioos:station:TCOON:003:1,2008-01-08T13:00:00Z,26.8015,-97.4706,0.0,5.4,176.0,6.0,'11111222,11111222,11111222' 
TCOON,ioos:station:TCOON:003:1,2008-01-08T14:00:00Z,26.8015,-97.4706,0.0,4.8,168.0,5.4,'11111222,11111222,11111222' 
TCOON,ioos:station:TCOON:003:1,2008-01-08T15:00:00Z,26.8015,-97.4706,0.0,9.3,202.0,10.8,'11111222,11111222,11111222' 
TCOON,ioos:station:TCOON:003:1,2008-01-08T16:00:00Z,26.8015,-97.4706,0.0,7.1,214.0,8.5,'11111222,11111222,11111222' 
TCOON,ioos:station:TCOON:003:1,2008-01-08T17:00:00Z,26.8015,-97.4706,0.0,6.9,233.0,7.8,'11111222,11111222,11111222' 
TCOON,ioos:station:TCOON:003:1,2008-01-08T18:00:00Z,26.8015,-97.4706,0.0,5.3,241.0,6.9,'11111222,11111222,11111222' 
TCOON,ioos:station:TCOON:003:1,2008-01-08T19:00:00Z,26.8015,-97.4706,0.0,1.8,357.0,2.2,'11111222,11111222,11111222' 
TCOON,ioos:station:TCOON:003:1,2008-01-08T20:00:00Z,26.8015,-97.4706,0.0,7.5,36.0,9.1,'11111222,11111222,11111222' 
TCOON,ioos:station:TCOON:003:1,2008-01-08T21:00:00Z,26.8015,-97.4706,0.0,4.4,59.0,5.5,'11111222,11111222,11111222' 
TCOON,ioos:station:TCOON:003:1,2008-01-08T22:00:00Z,26.8015,-97.4706,0.0,3.6,55.0,4.0,'11111222,11111222,11111222' 
TCOON,ioos:station:TCOON:003:1,2008-01-08T23:00:00Z,26.8015,-97.4706,0.0,3.1,63.0,3.5,'11111222,11111222,11111222' 
TCOON,ioos:station:TCOON:003:1,2008-01-09T00:00:00Z,26.8015,-97.4706,0.0,2.9,46.0,3.0,'11111222,11111222,11111222' 
TCOON,ioos:station:TCOON:003:1,2008-01-09T01:00:00Z,26.8015,-97.4706,0.0,10.7,34.0,13.8,'11111222,11111222,11111222' 
TCOON,ioos:station:TCOON:003:1,2008-01-09T02:00:00Z,26.8015,-97.4706,0.0,11.0,39.0,13.1,'11111222,11111222,11111222' 
TCOON,ioos:station:TCOON:003:1,2008-01-09T03:00:00Z,26.8015,-97.4706,0.0,10.6,38.0,12.4,'11111222,11111222,11111222' 
TCOON,ioos:station:TCOON:003:1,2008-01-09T04:00:00Z,26.8015,-97.4706,0.0,9.7,33.0,11.9,'11111222,11111222,11111222' 
TCOON,ioos:station:TCOON:003:1,2008-01-09T05:00:00Z,26.8015,-97.4706,0.0,8.8,34.0,10.8,'11111222,11111222,11111222' 
TCOON,ioos:station:TCOON:003:1,2008-01-09T06:00:00Z,26.8015,-97.4706,0.0,7.8,29.0,9.2,'11111222,11111222,11111222' 
TCOON,ioos:station:TCOON:003:1,2008-01-09T07:00:00Z,26.8015,-97.4706,0.0,8.9,33.0,10.7,'11111222,11111222,11111222' 
TCOON,ioos:station:TCOON:003:1,2008-01-09T08:00:00Z,26.8015,-97.4706,0.0,9.0,26.0,10.7,'11111222,11111222,11111222' 
TCOON,ioos:station:TCOON:003:1,2008-01-09T09:00:00Z,26.8015,-97.4706,0.0,6.9,26.0,8.7,'11111222,11111222,11111222' 
TCOON,ioos:station:TCOON:003:1,2008-01-09T10:00:00Z,26.8015,-97.4706,0.0,7.7,19.0,8.8,'11111222,11111222,11111222' 
TCOON,ioos:station:TCOON:003:1,2008-01-09T11:00:00Z,26.8015,-97.4706,0.0,7.5,12.0,8.6,'11111222,11111222,11111222' 
TCOON,ioos:station:TCOON:003:1,2008-01-09T12:00:00Z,26.8015,-97.4706,0.0,6.9,30.0,8.0,'11111222,11111222,11111222' 
TCOON,ioos:station:TCOON:003:1,2008-01-09T13:00:00Z,26.8015,-97.4706,0.0,6.1,49.0,7.5,'11111222,11111222,11111222' 